This demonstration page uses our WeatherBlox Daily Observations layout. Learn more.

Left ArrowRight Arrow

39.51506, -84.39828

Hourly Observations for September 24, 2021

Temp ( °F °C ) Dew Point ( °F °C ) Humidity (%) Winds ( mph kmh ) Pressure ( in mb ) Visibility ( mi km ) Precip ( " mm )
12:15 am 00:15 Clear 48 9 N/A N/A N N/A 30.05 1018 10 16 N/A
12:35 am 00:35 Clear 48 9 N/A N/A N N/A 30.05 1018 10 16 N/A
12:55 am 00:55 Mostly Cloudy with Mist and Fog 46 8 N/A N/A N N/A 30.05 1018 1 1 N/A
1:15 am 01:15 Mostly Cloudy with Mist and Fog 46 8 N/A N/A N N/A 30.05 1018 2 2 N/A
1:35 am 01:35 Mostly Cloudy with Mist and Fog 46 8 N/A N/A N N/A 30.05 1018 1 1 N/A
1:55 am 01:55 Mostly Cloudy with Mist and Fog 45 7 N/A N/A W 3 6 30.06 1018 1 2 N/A
2:15 am 02:15 Clear 45 7 N/A N/A WSW 3 6 30.06 1018 10 16 N/A
2:35 am 02:35 Clear 45 7 N/A N/A N N/A 30.06 1018 10 16 N/A
2:55 am 02:55 Clear with Mist and Fog 45 7 N/A N/A N N/A 30.07 1018 4 6 N/A
3:15 am 03:15 Mostly Cloudy with Mist and Fog 45 7 N/A N/A N N/A 30.07 1018 1 2 N/A
3:35 am 03:35 Mostly Cloudy with Fog 45 7 N/A N/A SW 3 6 30.07 1018 1 1 N/A
3:55 am 03:55 Mostly Cloudy with Mist and Fog 45 7 N/A N/A WSW 3 6 30.07 1018 1 2 N/A
4:15 am 04:15 Mostly Cloudy with Mist and Fog 45 7 N/A N/A SW 3 6 30.08 1019 2 2 N/A
4:35 am 04:35 Mostly Cloudy with Mist and Fog 43 6 N/A N/A N N/A 30.08 1019 1 1 N/A
4:55 am 04:55 Mostly Cloudy with Mist and Fog 43 6 N/A N/A SSW 3 6 30.09 1019 2 2 N/A
5:15 am 05:15 Clear with Mist and Fog 45 7 N/A N/A SW 5 7 30.09 1019 3 4 N/A
5:35 am 05:35 Clear 45 7 N/A N/A SW 3 6 30.10 1019 10 16 N/A
5:55 am 05:55 Clear 45 7 N/A N/A SW 5 7 30.10 1019 10 16 N/A
6:15 am 06:15 Clear 43 6 N/A N/A SW 6 9 30.11 1020 10 16 N/A
6:35 am 06:35 Clear 45 7 N/A N/A SW 5 7 30.11 1020 10 16 N/A
6:55 am 06:55 Clear 45 7 N/A N/A SSW 3 6 30.11 1020 10 16 N/A
7:15 am 07:15 Clear 45 7 N/A N/A SW 3 6 30.12 1020 10 16 N/A
7:35 am 07:35 Sunny 43 6 N/A N/A SSW 3 6 30.13 1020 10 16 N/A
7:55 am 07:55 Sunny 45 7 N/A N/A SW 3 6 30.13 1020 10 16 N/A
8:15 am 08:15 Sunny 46 8 N/A N/A SW 3 6 30.12 1020 10 16 N/A
8:35 am 08:35 Sunny 48 9 N/A N/A N N/A 30.13 1020 10 16 N/A
8:55 am 08:55 Sunny 50 10 N/A N/A SW 6 9 30.13 1020 10 16 N/A
9:15 am 09:15 Sunny 51 10.4 51 10.3 99 99 SSW 7 11 30.13 1020 10 16 N/A
9:35 am 09:35 Sunny 53 11.5 51 10.6 94 94 SSW 7 11 30.13 1020 10 16 N/A
9:55 am 09:55 Sunny 55 12.6 51 10.4 87 87 SSW 7 11 30.13 1020 10 16 N/A
10:15 am 10:15 Sunny 56 13.6 50 10.1 80 80 SSW 8 13 30.13 1020 10 16 0.01 0.25
10:35 am 10:35 Sunny 58 14.7 51 10.4 76 76 SW 7 11 30.13 1020 10 16 0.01 0.25
10:55 am 10:55 Sunny 61 15.9 51 10.6 71 71 SW 8 13 30.12 1020 10 16 0.01 0.25
11:15 am 11:15 Sunny 63 17 52 10.9 68 68 SW 7 11 30.12 1020 10 16 N/A
11:35 am 11:35 Sunny 64 17.8 51 10.4 62 62 WSW 8 13 30.13 1020 10 16 N/A
11:55 am 11:55 Sunny 66 18.7 52 10.9 61 61 WSW 8 13 30.12 1020 10 16 N/A
12:15 pm 12:15 Sunny 68 20 50 10 53 53 SW 9 15 30.11 1020 10 16 N/A
12:35 pm 12:35 Sunny 69 20.5 51 10.3 52 52 WSW 8 13 30.10 1019 10 16 N/A
12:55 pm 12:55 Sunny 70 21.1 50 10.2 50 50 WSW 10 17 30.10 1019 10 16 N/A
1:15 pm 13:15 Sunny 71 21.7 49 9.6 46 46 SW 10 17 30.08 1019 10 16 N/A
1:35 pm 13:35 Sunny 72 22.2 47 8.3 41 41 WSW 8 13 30.08 1019 10 16 N/A
1:55 pm 13:55 Sunny 72 22.2 47 8.1 41 41 WSW 8 13 30.08 1019 10 16 N/A
2:15 pm 14:15 Sunny 72 22.4 46 7.9 39 39 SW 13 20 30.07 1018 10 16 N/A
2:35 pm 14:35 Sunny 73 23 47 8.4 39 39 SW 8 13 30.07 1018 10 16 N/A
2:55 pm 14:55 Sunny 73 22.7 46 7.5 38 38 WSW 9 15 30.06 1018 10 16 N/A
3:15 pm 15:15 Sunny 73 22.9 46 7.7 38 38 SW 8 13 30.05 1018 10 16 N/A
3:35 pm 15:35 Sunny 74 23.4 48 9 40 40 SW 12 19 30.04 1017 10 16 N/A
3:55 pm 15:55 Sunny 73 23 46 8 38 38 S 12 19 30.04 1017 10 16 N/A
4:15 pm 16:15 Sunny 74 23.2 46 7.9 38 38 SW 10 17 30.03 1017 10 16 N/A
4:35 pm 16:35 Sunny 74 23.2 47 8.1 38 38 WSW 9 15 30.03 1017 10 16 N/A
4:55 pm 16:55 Sunny 74 23.2 47 8.4 39 39 SW 9 15 30.03 1017 10 16 N/A
5:15 pm 17:15 Sunny 73 23 47 8.2 39 39 SW 9 15 30.03 1017 10 16 N/A
5:35 pm 17:35 Sunny 73 22.9 46 7.9 38 38 SW 10 17 30.03 1017 10 16 N/A
5:55 pm 17:55 Sunny 73 22.6 47 8.2 40 40 SW 10 17 30.02 1017 10 16 N/A
6:15 pm 18:15 Sunny 72 22.1 47 8.5 42 42 SW 10 17 30.02 1017 10 16 N/A
6:35 pm 18:35 Sunny 71 21.5 48 8.8 44 44 SW 7 11 30.02 1017 10 16 N/A
6:55 pm 18:55 Sunny 69 20.3 49 9.4 50 50 SW 6 9 30.02 1017 10 16 N/A
7:15 pm 19:15 Sunny 66 19.1 50 9.9 55 55 SW 6 9 30.03 1017 10 16 N/A
7:35 pm 19:35 Clear 60 15.8 53 11.8 77 77 WSW 5 7 30.04 1017 10 16 N/A
7:55 pm 19:55 Clear 57 14.1 56 13.2 94 94 WSW 6 9 30.05 1018 10 16 N/A
8:15 pm 20:15 Clear 57 13.7 56 13.3 97 97 WSW 3 6 30.06 1018 10 16 N/A
8:35 pm 20:35 Clear 56 13.3 54 12.1 93 93 SW 3 6 30.06 1018 10 16 N/A
8:55 pm 20:55 Clear 55 12.8 55 12.5 98 98 SW 3 6 30.07 1018 10 16 N/A
9:15 pm 21:15 Clear 56 13.1 55 13 99 99 W 3 6 30.07 1018 10 16 N/A
9:35 pm 21:35 Clear 54 12 54 12 100 100 N N/A 30.07 1018 10 16 N/A
9:55 pm 21:55 Clear 54 12 N/A N/A N N/A 30.06 1018 10 16 N/A
10:15 pm 22:15 Clear 55 12.7 55 12.6 99 99 N N/A 30.06 1018 10 16 N/A
10:35 pm 22:35 Clear 52 11 N/A N/A N N/A 30.08 1019 10 16 N/A
10:55 pm 22:55 Clear 54 12 N/A N/A N N/A 30.06 1018 10 16 N/A
11:15 pm 23:15 Clear 54 12 N/A N/A N N/A 30.06 1018 10 16 N/A
11:35 pm 23:35 Clear 54 12 N/A N/A N N/A 30.05 1018 10 16 N/A
11:55 pm 23:55 Clear 52 11 N/A N/A N N/A 30.06 1018 10 16 N/A

Powered by AerisWeather